Location: Croissy-Beaubourg
(48.8283°N, 2.6696°E)
Time: 03:01:42
(UTC+00:00)

Cosmos 2082 - Pass Details

Date: 22 August 2022
Orbit: 832 x 856 km, 71.0° (Epoch: 29 September)

Event Time Altitude Azimuth Distance (km) Brightness Sun altitude
Rises 04:07:32 0° 319° (NW) 3,415 6.7 -7.5°
Reaches altitude 10° 04:10:53 10° 299° (WNW) 2,479 5.8 -7.0°
Maximum altitude 04:14:15 16° 262° (W) 2,063 5.2 -6.5°
Drops below altitude 10° 04:17:38 10° 225° (SW) 2,477 5.5 -6.0°
Sets 04:20:59 0° 205° (SSW) 3,410 6.4 -5.5°
